Weather History for Clinton, OK

Change the Weather History Date:

Wednesday, November 2, 2011

  Actual Average (KCSM) Record (KCSM)
Temperature  
Mean Temperature 48 °F -  
Max Temperature 60 °F 61 °F 86 °F (2012)
Min Temperature 37 °F 42 °F 28 °F (2006)
Degree Days  
Heating Degree Days 16    
Moisture  
Dew Point 41 °F    
Average Humidity 68    
Maximum Humidity 77    
Minimum Humidity 51    
Precipitation  
Precipitation 0.00 in - - ()
Sea Level Pressure  
Sea Level Pressure 30.01 in    
Wind  
Wind Speed 17 mph (West)    
Max Wind Speed 29 mph    
Max Gust Speed 43 mph    
Visibility 10 miles    
Events      
Averages and records for this station are not official NWS values.
T = Trace of Precipitation, MM = Missing Value Source: NWS Daily Summary

Daily Weather History Graph

Daily Weather History Graph

Search for Another Location

Airport:

Trip Planner

Search our weather history database for the weather conditions in past years. The results will help you decide how hot, cold, wet, or windy it might be!

Date:

Astronomy

Nov. 02, 2011 Rise Set
Actual Time 7:58 AM CDT 6:39 PM CDT
Civil Twilight 7:31 AM CDT 7:06 PM CDT
Nautical Twilight 7:01 AM CDT 7:36 PM CDT
Astronomical Twilight 6:31 AM CDT 8:06 PM CDT
Moon 2:19 PM CDT (11/2) 12:26 AM CDT (11/2)
Length of Visible Light 11h 34m
Length of Day
10h 41m
Waxing Crescent, 50% of the Moon is Illuminated
Nov 2
Waxing Crescent
Nov 10
Full
Nov 18
Last Quarter
Nov 25
New
Dec 2
First Quarter

Hourly Weather History & Observations

Time (CDT) Temp. Windchill Dew Point Humidity Pressure Visibility Wind Dir Wind Speed Gust Speed Precip Events Conditions
12:15 AM 59.0 °F - 50.0 °F 72% 29.86 in 10.0 mi SSE 15.0 mph - N/A   Clear
12:35 AM 59.0 °F - 50.0 °F 72% 29.86 in 10.0 mi SSE 12.7 mph - N/A   Clear
12:55 AM 59.0 °F - 50.0 °F 72% 29.85 in 10.0 mi SSE 11.5 mph - N/A   Clear
1:15 AM 60.8 °F - 48.2 °F 63% 29.85 in 10.0 mi SSE 13.8 mph - N/A   Clear
1:35 AM 60.8 °F - 48.2 °F 63% 29.86 in 10.0 mi South 12.7 mph 18.4 mph N/A   Clear
1:55 AM 60.8 °F - 48.2 °F 63% 29.86 in 10.0 mi SSE 15.0 mph - N/A   Clear
2:15 AM 60.8 °F - 48.2 °F 63% 29.86 in 10.0 mi South 13.8 mph - N/A   Clear
2:35 AM 60.8 °F - 48.2 °F 63% 29.86 in 10.0 mi South 15.0 mph - N/A   Clear
2:55 AM 60.8 °F - 48.2 °F 63% 29.86 in 10.0 mi South 12.7 mph 17.3 mph N/A   Clear
3:15 AM 60.8 °F - 48.2 °F 63% 29.86 in 10.0 mi South 13.8 mph - N/A   Clear
3:35 AM 60.8 °F - 48.2 °F 63% 29.85 in 10.0 mi SSE 13.8 mph 18.4 mph N/A   Clear
4:55 AM 59.0 °F - 48.2 °F 67% 29.85 in 10.0 mi South 12.7 mph - N/A   Clear
5:15 AM 59.0 °F - 48.2 °F 67% 29.84 in 10.0 mi South 13.8 mph 18.4 mph N/A   Clear
5:55 AM 57.2 °F - 48.2 °F 72% 29.85 in 10.0 mi SSE 12.7 mph - N/A   Clear
6:15 AM 55.4 °F - 48.2 °F 77% 29.85 in 10.0 mi SSE 15.0 mph - N/A   Clear
6:35 AM 55.4 °F - 48.2 °F 77% 29.83 in 10.0 mi SSE 17.3 mph - N/A   Clear
6:55 AM 55.4 °F - 48.2 °F 77% 29.83 in 10.0 mi SSE 16.1 mph - N/A   Clear
7:35 AM 57.2 °F - 50.0 °F 77% 29.84 in 10.0 mi South 18.4 mph - N/A   Clear
7:55 AM 57.2 °F - 50.0 °F 77% 29.85 in 10.0 mi South 17.3 mph - N/A   Clear
8:15 AM 57.2 °F - 50.0 °F 77% 29.85 in 10.0 mi South 18.4 mph 27.6 mph N/A   Clear
8:35 AM 57.2 °F - 50.0 °F 77% 29.86 in 10.0 mi South 18.4 mph 24.2 mph N/A   Clear
8:55 AM 59.0 °F - 50.0 °F 72% 29.87 in 10.0 mi South 16.1 mph 23.0 mph N/A   Clear
9:15 AM 59.0 °F - 50.0 °F 72% 29.88 in 10.0 mi South 17.3 mph 24.2 mph N/A   Clear
9:35 AM 59.0 °F - 50.0 °F 72% 29.88 in 10.0 mi South 15.0 mph 25.3 mph N/A   Clear
9:55 AM 59.0 °F - 50.0 °F 72% 29.89 in 10.0 mi South 13.8 mph - N/A   Clear
10:15 AM 59.0 °F - 50.0 °F 72% 29.90 in 10.0 mi SSW 16.1 mph - N/A   Clear
10:35 AM 60.8 °F - 51.8 °F 72% 29.91 in 10.0 mi SSW 12.7 mph 23.0 mph N/A   Mostly Cloudy
10:55 AM 60.8 °F - 50.0 °F 68% 29.92 in 10.0 mi WSW 15.0 mph 19.6 mph N/A   Overcast
11:15 AM 59.0 °F - 48.2 °F 67% 29.92 in 10.0 mi WSW 13.8 mph 20.7 mph N/A   Overcast
11:35 AM 59.0 °F - 46.4 °F 63% 29.94 in 10.0 mi West 12.7 mph - N/A   Mostly Cloudy
11:55 AM 55.4 °F - 37.4 °F 51% 29.96 in 10.0 mi NNW 20.7 mph 28.8 mph N/A   Scattered Clouds
12:35 PM 51.8 °F - 35.6 °F 54% 29.99 in 10.0 mi NNW 21.9 mph 29.9 mph N/A   Mostly Cloudy
12:55 PM 50.0 °F - 35.6 °F 58% 29.99 in 10.0 mi NNW 21.9 mph 28.8 mph N/A   Overcast
1:15 PM 50.0 °F - 37.4 °F 62% 30.01 in 10.0 mi NNW 18.4 mph 32.2 mph N/A   Overcast
1:35 PM 48.2 °F - 35.6 °F 62% 30.01 in 10.0 mi NNW 23.0 mph 28.8 mph N/A   Overcast
1:55 PM 48.2 °F - 35.6 °F 62% 30.02 in 10.0 mi NW 21.9 mph 31.1 mph N/A   Mostly Cloudy
2:15 PM 48.2 °F - 35.6 °F 62% 30.03 in 10.0 mi NNW 20.7 mph 28.8 mph N/A   Mostly Cloudy
2:35 PM 46.4 °F 38.3 °F 35.6 °F 66% 30.04 in 10.0 mi NNW 23.0 mph 29.9 mph N/A   Mostly Cloudy
2:55 PM 46.4 °F 37.7 °F 35.6 °F 66% 30.05 in 10.0 mi NW 26.5 mph 32.2 mph N/A   Mostly Cloudy
3:15 PM 46.4 °F 38.3 °F 33.8 °F 62% 30.07 in 10.0 mi NNW 23.0 mph 34.5 mph N/A   Overcast
3:35 PM 44.6 °F 35.5 °F 33.8 °F 66% 30.09 in 10.0 mi NW 25.3 mph 33.4 mph N/A   Overcast
3:55 PM 44.6 °F 35.9 °F 35.6 °F 71% 30.10 in 10.0 mi NW 23.0 mph 31.1 mph N/A   Overcast
4:15 PM 44.6 °F 35.7 °F 33.8 °F 66% 30.11 in 10.0 mi NW 24.2 mph 31.1 mph N/A   Overcast
4:35 PM 42.8 °F 32.9 °F 32.0 °F 66% 30.14 in 10.0 mi NNW 26.5 mph 36.8 mph N/A   Overcast
4:55 PM 42.8 °F 33.1 °F 32.0 °F 66% 30.15 in 10.0 mi NW 25.3 mph 38.0 mph N/A   Overcast
5:15 PM 42.8 °F 32.7 °F 32.0 °F 66% 30.17 in 10.0 mi NNW 27.6 mph 35.7 mph N/A   Mostly Cloudy
5:35 PM 41.0 °F 30.0 °F 32.0 °F 70% 30.18 in 10.0 mi NNW 28.8 mph 36.8 mph N/A   Mostly Cloudy
5:55 PM 41.0 °F 30.5 °F 32.0 °F 70% 30.19 in 10.0 mi NNW 26.5 mph 40.3 mph N/A   Overcast
6:15 PM 41.0 °F 30.2 °F 32.0 °F 70% 30.22 in 10.0 mi NNW 27.6 mph 42.6 mph N/A   Overcast
6:35 PM 41.0 °F 30.0 °F 32.0 °F 70% 30.23 in 10.0 mi NNW 28.8 mph 40.3 mph N/A   Overcast
6:55 PM 41.0 °F 30.7 °F 32.0 °F 70% 30.25 in 10.0 mi NNW 25.3 mph 36.8 mph N/A   Overcast
7:15 PM 41.0 °F 31.1 °F 32.0 °F 70% 30.27 in 10.0 mi NNW 23.0 mph 36.8 mph N/A   Overcast
7:55 PM 41.0 °F 30.2 °F 30.2 °F 65% 30.29 in 10.0 mi NNW 27.6 mph 36.8 mph N/A   Overcast
8:15 PM 39.2 °F 28.3 °F 30.2 °F 70% 30.30 in 10.0 mi NNW 25.3 mph 40.3 mph N/A   Overcast
8:55 PM 37.4 °F 26.6 °F 30.2 °F 75% 30.32 in 10.0 mi NNW 21.9 mph 41.4 mph N/A   Mostly Cloudy
9:15 PM 37.4 °F 26.6 °F 30.2 °F 75% 30.33 in 10.0 mi NNW 21.9 mph 33.4 mph N/A   Scattered Clouds
9:35 PM 37.4 °F 25.9 °F 30.2 °F 75% 30.33 in 10.0 mi NNW 25.3 mph 35.7 mph N/A   Mostly Cloudy
9:55 PM 37.4 °F 26.9 °F 30.2 °F 75% 30.35 in 10.0 mi NNW 20.7 mph 34.5 mph N/A   Scattered Clouds
10:15 PM 37.4 °F 26.1 °F 30.2 °F 75% 30.35 in 10.0 mi NNW 24.2 mph 33.4 mph N/A   Clear
10:35 PM 37.4 °F 27.2 °F 28.4 °F 70% 30.35 in 10.0 mi NNW 19.6 mph 32.2 mph N/A   Clear
10:55 PM 37.4 °F 26.1 °F 28.4 °F 70% 30.36 in 10.0 mi NNW 24.2 mph 29.9 mph N/A   Clear
11:15 PM 37.4 °F 27.2 °F 28.4 °F 70% 30.36 in 10.0 mi NNW 19.6 mph 29.9 mph N/A   Clear
11:35 PM 35.6 °F 25.5 °F 28.4 °F 75% 30.36 in 10.0 mi NNW 17.3 mph 25.3 mph N/A   Clear
11:55 PM 35.6 °F 28.0 °F 28.4 °F 75% 30.36 in 10.0 mi NNW 10.4 mph 17.3 mph N/A   Clear